Location: Boston
(42.3580°N, 71.0600°W)
Time: 06:13:56
(UTC-04:00)

Tiangong 2 - Visible Passes

Search period start: 20 May 2018 00:00
Search period end: 30 May 2018 00:00
Orbit: 382 x 386 km, 42.8° (Epoch: 20 May)

Date Brightness Start Highest point End Pass type
(mag) Time Alt. Az. Time Alt. Az. Time Alt. Az.
20 May 3.4 04:23:59 10° SSW 04:23:59 10° SSW 04:24:05 10° SSW visible
20 May 3.2 20:56:29 10° SSE 20:57:23 12° SSE 20:57:23 12° SSE visible
21 May 1.8 21:31:22 10° SW 21:34:12 31° SSE 21:34:27 30° SE visible
22 May 1.0 22:07:51 10° WSW 22:10:49 68° SSW 22:10:49 68° SSW visible
23 May 1.3 21:08:11 10° SW 21:11:14 48° SSE 21:14:17 10° E visible
23 May 2.5 22:44:44 10° W 22:46:38 33° W 22:46:38 33° W visible
24 May 0.9 21:44:56 10° W 21:48:05 89° S 21:49:54 23° E visible
24 May 3.9 23:21:41 10° W 23:22:06 13° W 23:22:06 13° W visible
25 May 1.0 20:45:09 10° WSW 20:48:17 69° SSE 20:51:25 10° E visible
25 May 1.0 22:21:51 10° W 22:25:01 81° N 22:25:08 79° NE visible
26 May 1.1 21:22:01 10° W 21:25:11 81° N 21:28:02 12° E visible
26 May 3.0 22:58:47 10° W 23:00:13 24° W 23:00:13 24° W visible
27 May 0.9 21:58:57 10° W 22:02:06 89° S 22:03:01 43° E visible
28 May 1.1 20:59:06 10° W 21:02:15 81° N 21:05:25 10° E visible
28 May 2.2 22:35:52 10° W 22:37:58 34° WSW 22:37:58 34° WSW visible
29 May 1.0 21:35:59 10° W 21:39:08 69° SSW 21:40:41 26° ESE visible
